SCP
-0 -0 -0 -0 -0 -0 -0 -0 -0 -0 -0 -0 -0 -0 0 0 -0 -0 -0 -0 -0 -0 -0 -0 -0 -0 -0 -0 0 -0 -0 -0 -0 -0 -0 0 0 0 0 0 -0 -0 0 0 0 0 0
-0 -0 -0 -0 -0 -0 -0 -0 -0 -0 -0 -0 -0 -0 0 -0 -0 -0 -0 -0 -0 -0 -0 -0 -0 -0 -0 0 -0 -0 -0 -0 -0 -0 0 0 0 0 0 0 0 0 0 0 -0 0 0
-0 -0 -0 -0 -0 -0 -0 -0 -0 -0 -0 -0 -0 -0 0 -0 -0 -0 -0 -0 -0 -0 -0 -0 -0 -0 0 0 0 0 0 0 0 0 0 0 0 0 0 0 0 0 0 0 -0 0 0
-0 -0 -0 -0 0 0 0 0 -0 -0 -0 -0 -0 0 0 -0 -0 -0 -0 -0 -0 -0 -0 -0 -0 -0 0 0 0 0 0 0 0 0 0 0 0 0 0 0 0 -0 0 0 0 0 0
-0 0 0 0 0 0 0 0 0 -0 -0 -0 -0 0 0 -0 -0 -0 -0 -0 -0 -0 0 0 0 -0 0 0 0 0 0 0 0 0 0 0 0 0 0 0 0 0 0 0 0 0 0
0 0 0 0 0 0 0 -0 -0 -0 -0 -0 0 0 0 -0 -0 0 -0 -0 0 0 0 0 0 0 0 0 0 0 0 0 0 0 0 0 0 0 0 0 0 0 0 0 0 0 0
0 0 0 0 0 0 0 -0 -0 -0 -0 -0 -0 0 -0 -0 -0 0 0 0 0 0 0 0 0 0 0 0 0 0 0 0 0 0 0 0 0 0 0 0 0 0 0 0 0 0 0
0 0 0 0 0 0 0 -0 -0 -0 -0 -0 -0 -0 -0 -0 -0 0 0 0 0 0 0 0 0 0 0 0 0 0 0 0 0 0 0 0 0 0 0 0 0 0 0 0 0 0 0
0 0 0 0 0 0 -0 -0 -0 -0 -0 -0 -0 0 -0 -0 -0 0 0 0 -0 0 0 0 0 0 0 0 0 0 0 0 0 0 0 0 0 0 0 0 0 0 0 0 0 0 0
0 0 0 0 0 0 -0 -0 -0 -0 -0 -0 -0 -0 0 -0 0 0 0 0 -0 0 0 0 0 0 0 0 0 0 0 0 0 0 0 0 0 0 0 0 0 0 0 0 0 -0 -0
0 0 0 0 0 0 -0 -0 -0 -0 -0 -0 -0 0 -0 -0 0 0 0 0 0 0 0 0 0 0 0 0 0 0 0 0 0 0 0 0 0 0 0 0 0 0 0 0 0 0 0
0 0 0 0 0 0 -0 -0 -0 -0 -0 0 -0 0 -0 0 0 0 0 0 0 0 0 0 0 0 0 0 0 0 0 0 0 0 0 0 0 0 0 0 0 0 0 0 0 0 0
0 0 0 0 0 0 -0 -0 -0 -0 -0 -0 0 0 0 0 0 0 0 0 0 0 0 0 0 0 0 0 0 0 0 0 0 0 0 0 0 0 0 0 0 0 0 0 0 0 0
-0 -0 -0 0 0 -0 -0 0 -0 -0 -0 -0 0 0 0 0 0 0 0 0 0 0 0 0 0 0 0 0 0 0 0 0 0 0 0 0 0 0 0 0 0 0 0 0 0 0 -0
-0 -0 -0 -0 -0 -0 -0 0 -0 -0 -0 -0 0 0 0 0 0 0 0 0 0 0 0 0 0 0 0 0 0 0 0 0 0 0 0 0 0 0 0 0 0 0 0 0 0 -0 -0
0 -0 -0 -0 -0 -0 -0 0 0 -0 -0 0 0 0 0 -0 0 0 0 0 0 0 0 0 0 0 0 0 0 0 0 0 0 0 0 0 0 0 0 0 0 0 0 0 0 0 0
0 0 -0 -0 -0 -0 0 0 0 0 -0 -0 0 0 0 -0 0 0 0 0 0 0 0 0 0 0 0 0 0 0 0 0 0 0 0 0 0 0 0 0 0 0 0 0 0 0 -0
0 0 0 -0 -0 -0 0 0 0 -0 -0 -0 0 0 0 0 0 0 0 0 0 0 0 0 0 0 0 0 0 0 0 0 0 0 0 0 0 0 0 0 0 0 -0 0 0 -0 -0
0 0 0 -0 -0 -0 0 0 0 0 0 0 0 0 0 0 0 0 0 0 0 0 0 0 0 0 0 0 0 0 0 0 0 0 0 0 0 0 0 0 0 0 -0 0 -0 -0 0
0 0 0 0 0 0 0 0 0 0 0 0 0 0 0 0 0 0 0 0 0 0 0 0 0 0 0 0 0 0 0 0 0 0 0 0 0 0 0 0 -0 -0 -0 0 0 0 -0
0 0 0 0 0 0 0 0 0 0 0 -0 0 0 0 0 0 0 0 0 0 0 0 0 0 0 0 0 0 0 0 0 0 0 0 0 0 0 0 0 0 -0 -0 -0 0 0 -0
0 0 0 0 0 0 0 0 0 0 -0 0 0 0 0 0 0 0 0 0 0 0 0 0 0 0 0 0 0 0 0 0 0 0 0 0 0 0 0 0 0 -0 -0 0 0 0 0
0 0 0 0 0 0 0 0 0 0 0 0 0 0 0 0 0 0 0 0 0 0 0 0 0 0 0 0 0 0 0 0 0 0 0 0 0 -0 0 -0 -0 0 0 0 0 0 0
0 0 0 0 0 0 0 0 0 0 0 -0 0 0 0 0 0 0 0 0 0 0 0 0 0 0 0 0 0 0 0 0 0 0 0 0 0 0 0 -0 0 0 0 0 0 0 0
0 0 0 0 0 0 0 0 0 0 0 0 0 0 0 0 0 0 0 0 0 0 0 0 0 0 0 0 0 0 0 0 0 0 0 0 0 -0 0 0 0 0 0 0 0 0 0
0 0 0 0 0 0 0 0 0 0 0 0 0 0 0 0 0 0 0 0 0 0 0 0 0 0 0 0 0 0 0 0 0 0 0 0 0 0 0 0 0 0 0 0 0 0 0
0 0 0 0 0 0 0 0 0 0 0 0 0 0 0 0 0 0 0 0 0 0 0 0 0 0 0 0 0 0 0 0 0 0 0 0 0 0 0 0 0 0 0 0 0 0 0
0 0 0 0 0 0 0 0 0 0 0 0 0 0 0 0 0 0 0 0 0 0 0 0 0 0 0 0 0 0 0 0 0 0 0 0 -0 0 0 0 0 -0 0 0 0 0 0
0 0 0 0 0 0 0 0 0 0 0 0 0 0 0 0 0 0 0 -0 -0 -0 0 0 0 0 0 0 0 0 0 0 0 0 0 0 0 0 0 0 0 0 0 0 0 0 0
Wind_Speed_500mb
53 53 54 54 56 60 62 64 63 58 54 52 50 37 21 18 19 19 21 23 23 12 14 17 21 23 24 22 23 11 10 10 10 12 14 16 19 13 12 16 11 13 13 22 32 39 39
54 55 54 54 57 60 64 67 66 61 55 50 49 37 19 13 14 17 22 24 18 10 12 18 23 25 15 28 9 7 6 6 7 10 12 14 15 17 10 21 15 20 32 39 37 31 18
55 56 56 56 57 59 63 68 70 65 56 53 50 36 18 13 13 18 23 22 11 13 19 25 28 29 24 16 8 12 12 11 13 14 16 14 14 16 25 24 11 33 35 34 33 17 29
55 57 58 57 58 59 63 67 69 67 58 54 50 35 19 14 15 21 25 14 13 15 20 20 21 22 18 15 11 14 14 16 14 16 19 20 18 24 23 30 35 36 29 23 24 27 29
56 60 61 60 60 61 63 66 68 66 56 54 45 32 22 16 17 24 24 12 15 15 18 14 10 3 13 16 9 10 17 13 13 13 13 15 16 27 30 26 28 30 32 44 52 43 37
57 61 63 63 62 62 63 64 65 61 53 51 37 29 21 19 22 26 20 12 15 13 13 9 7 7 10 16 4 11 17 17 13 22 17 11 19 20 25 24 30 42 45 44 48 48 48
61 65 66 65 63 62 63 65 63 57 48 46 30 29 19 20 24 29 22 14 1 4 7 4 5 6 4 15 3 8 14 22 17 15 13 17 19 20 29 25 26 33 44 52 52 45 45
66 70 71 68 66 65 65 63 60 54 44 39 23 26 18 21 23 24 26 10 8 2 4 2 7 3 7 14 12 9 17 16 16 22 18 23 19 12 21 25 35 43 46 50 48 41 36
67 71 73 72 70 67 65 61 58 53 41 34 16 21 17 7 21 18 18 14 8 2 11 7 8 6 7 15 20 11 14 24 18 23 23 21 25 20 24 34 40 37 38 40 44 46 45
67 70 72 72 72 70 67 62 58 53 41 31 7 13 18 14 9 20 9 25 2 4 9 12 9 5 7 25 8 17 12 23 23 22 23 18 12 26 34 36 31 34 33 43 46 43 39
68 70 72 73 72 71 68 65 59 53 41 28 7 4 14 20 10 11 20 15 4 3 9 7 6 3 18 14 26 7 12 20 30 31 16 16 28 36 33 22 26 37 35 38 49 47 48
67 71 73 73 73 71 70 65 61 54 43 26 8 1 9 18 17 17 20 6 2 11 3 3 2 10 23 29 10 20 26 27 34 20 20 31 35 30 20 27 25 38 33 38 50 27 18
67 71 74 74 73 73 71 67 61 56 46 29 9 1 6 13 10 21 21 2 9 9 4 5 12 23 34 21 20 18 33 25 15 14 22 39 13 10 18 28 37 31 26 16 9 9 21
66 70 72 73 72 72 72 69 64 59 52 37 14 13 4 11 15 21 13 10 8 11 11 17 21 37 24 17 18 26 27 27 9 15 24 20 34 9 18 45 45 36 19 11 16 24 39
64 67 69 70 70 70 70 69 65 59 57 47 11 8 5 13 17 19 14 6 9 7 8 19 33 18 9 10 19 23 27 23 7 8 14 26 22 47 36 17 22 18 20 20 14 37 27
62 65 67 69 69 68 67 67 66 61 57 50 9 7 11 11 16 4 8 3 4 4 13 16 15 7 23 33 21 28 22 10 16 3 19 24 30 27 15 43 13 21 15 12 7 11 26
58 61 64 67 67 66 64 63 64 62 58 44 12 4 13 18 7 3 5 7 10 6 11 9 17 28 29 31 19 33 13 26 15 24 37 30 9 25 45 34 39 21 9 13 9 12 19
56 60 62 64 64 62 61 59 59 60 57 48 11 4 20 9 2 5 7 8 11 7 8 16 14 15 15 21 29 16 21 19 32 45 36 19 10 32 46 44 29 23 31 27 11 25 27
54 57 60 63 62 61 59 57 56 54 53 47 19 8 15 11 6 7 5 7 9 13 7 10 10 8 17 23 13 14 22 12 53 20 11 5 7 18 27 13 12 22 35 35 35 29 41
53 56 59 59 58 58 58 55 53 51 44 33 14 7 8 17 10 9 11 5 10 7 18 9 19 25 14 23 24 23 40 13 30 47 55 47 18 29 30 45 48 53 53 45 36 15 39
50 53 55 55 54 55 55 55 51 46 38 23 16 7 6 9 3 15 8 6 14 10 7 20 8 12 20 15 34 42 26 43 50 50 25 10 25 38 45 48 51 57 59 52 41 40 19
48 51 52 52 51 49 48 50 52 49 38 18 13 13 13 20 13 15 0 5 13 9 13 9 17 15 25 35 40 53 47 42 31 26 18 8 19 32 48 47 49 53 52 35 26 29 38
45 48 49 48 47 47 45 44 47 47 41 15 15 12 12 9 9 10 9 11 15 27 16 23 21 35 34 35 39 53 67 73 54 46 40 18 13 19 39 39 49 31 6 18 29 31 23
44 45 44 44 43 43 43 40 39 39 35 21 14 12 8 9 10 14 18 31 31 31 28 46 35 31 26 46 56 60 60 48 36 28 25 18 24 20 29 42 31 30 24 6 21 33 51
40 40 40 41 41 41 40 38 34 33 30 16 12 10 9 13 20 31 19 25 30 37 38 39 33 25 41 41 23 17 15 11 11 18 15 21 21 13 11 24 45 27 9 7 19 52 40
39 38 38 39 39 39 38 36 35 32 33 23 11 8 8 19 2 17 29 31 22 24 23 19 15 29 29 13 11 15 8 23 9 12 12 14 20 20 24 27 23 20 25 46 40 39 8
36 38 37 37 37 37 37 36 34 31 31 32 16 12 11 21 24 10 20 23 24 21 17 31 18 21 8 11 12 11 13 12 9 18 12 21 23 21 23 23 29 22 42 48 14 32 70
34 35 35 35 34 33 32 32 34 33 31 34 24 17 20 21 48 47 40 39 30 31 14 25 21 7 9 7 7 7 8 9 16 23 25 14 12 15 15 30 19 54 33 14 26 60 77
34 34 35 36 36 34 34 33 32 31 24 27 25 15 17 33 44 52 65 63 62 55 47 21 18 16 8 7 4 7 9 8 12 12 22 9 9 15 14 20 57 63 39 34 64 67 82
Wind_Direction_500mb
38 37 36 33 29 25 21 18 14 12 10 10 13 12 13 23 32 34 27 18 7 30 58 88 108 108 96 93 89 115 95 76 56 24 25 18 23 355 1 340 306 266 323 294 291 285 279
35 32 30 27 23 22 20 17 14 11 10 7 6 7 10 17 30 24 11 5 8 51 83 104 118 114 93 86 103 82 28 353 322 346 351 356 355 345 288 309 288 324 300 295 287 286 255
34 30 25 22 20 18 16 15 13 10 11 7 5 6 10 17 30 22 10 8 49 89 112 108 111 103 75 76 56 16 354 303 291 294 307 312 318 310 319 303 325 295 291 285 267 258 276
30 26 22 19 15 13 11 11 11 10 8 7 7 13 27 36 35 22 7 26 82 108 131 127 118 92 80 47 32 354 319 312 289 281 278 279 287 287 278 300 279 274 291 275 300 296 300
25 21 17 14 10 7 7 7 7 8 7 6 13 26 36 51 35 14 10 61 91 116 133 129 103 81 79 20 20 0 13 354 315 292 274 263 274 280 286 271 294 275 284 299 300 300 291
19 16 12 9 6 4 4 3 5 6 7 7 17 26 38 49 31 21 25 88 88 102 123 98 85 191 67 1 295 1 339 344 314 305 261 249 283 269 267 275 301 313 301 297 293 301 298
12 9 7 7 4 1 2 2 4 7 8 9 21 25 51 55 37 37 43 77 284 119 44 41 65 74 27 346 308 332 348 336 320 274 291 318 294 296 325 311 300 295 290 291 291 297 295
8 6 5 4 4 1 1 3 5 8 9 12 30 34 65 56 46 40 44 70 42 318 219 104 145 142 351 351 307 311 348 345 317 318 306 288 283 346 300 292 293 295 292 289 298 307 306
6 5 5 5 5 4 4 6 8 9 10 14 41 42 45 51 39 28 45 24 3 6 257 182 208 268 341 335 312 302 327 329 313 312 335 301 301 313 292 303 300 294 290 300 305 304 289
6 6 6 6 5 4 5 6 7 8 10 9 61 44 34 29 24 8 3 350 324 165 253 141 200 194 301 328 257 299 305 328 304 316 324 290 311 299 307 302 309 302 315 305 295 300 296
8 7 6 5 5 5 5 5 7 7 9 4 9 10 22 20 7 359 341 -0 109 161 269 85 151 255 320 323 313 104 309 309 304 318 277 270 313 315 305 310 318 299 306 302 289 286 287
7 6 5 5 4 3 4 4 6 5 7 1 360 289 356 15 20 1 356 11 127 234 218 141 281 296 313 333 301 301 308 305 292 293 277 272 278 276 294 309 290 302 291 296 280 276 276
5 5 5 4 4 2 2 3 5 2 5 358 315 220 14 25 9 357 350 304 256 270 131 37 328 323 319 309 296 320 321 314 309 309 312 315 264 247 286 302 304 304 310 296 274 223 274
2 3 4 4 3 2 0 1 3 2 359 359 331 221 314 360 357 352 339 257 267 45 348 344 318 310 297 358 322 323 307 309 310 281 311 313 314 354 317 304 296 297 298 271 296 308 305
359 0 2 3 2 1 359 359 360 4 358 1 1 214 3 325 321 335 289 277 2 359 353 321 310 284 284 255 332 316 310 310 313 313 317 317 288 317 303 322 307 308 269 293 283 268 265
356 357 359 1 2 1 360 358 356 1 1 358 25 143 350 333 336 326 264 306 279 290 319 301 297 298 316 324 316 332 312 347 318 274 334 298 301 304 287 311 279 238 275 277 222 281 298
353 355 357 358 359 360 359 358 356 357 1 360 45 183 338 339 45 281 341 345 302 316 322 294 289 294 301 313 298 313 275 310 14 326 327 312 248 274 301 291 300 279 249 236 274 273 287
351 353 355 356 357 358 360 359 357 357 359 7 15 245 346 43 204 7 346 344 330 289 292 287 284 283 301 319 298 288 270 291 329 320 299 322 276 281 298 289 268 285 287 286 262 278 289
350 350 353 354 355 356 357 0 359 0 1 359 342 315 349 31 -0 357 340 286 275 299 309 295 285 283 312 294 303 267 274 294 312 320 336 301 265 298 299 293 183 285 302 290 282 280 272
346 349 352 354 355 355 355 360 3 2 3 1 347 315 18 49 54 339 337 294 296 279 283 256 281 293 303 293 281 278 291 302 295 303 293 289 260 263 276 289 304 297 293 282 271 265 286
343 347 349 351 353 354 353 354 1 6 11 24 7 34 351 323 32 326 286 286 302 313 269 292 268 247 324 287 296 283 290 304 302 298 276 266 275 293 288 288 288 285 287 295 289 276 273
341 344 345 347 350 352 353 353 353 7 18 28 2 349 322 293 292 293 166 271 294 295 305 283 276 310 297 286 285 292 296 292 299 293 285 251 285 296 287 286 290 304 303 294 291 286 284
338 339 341 343 346 348 351 354 353 358 18 40 11 339 314 294 303 294 339 314 305 313 277 252 301 305 294 289 291 285 285 284 276 278 284 267 261 288 289 302 308 291 356 300 285 290 279
332 336 338 340 343 345 346 352 353 353 7 22 354 342 310 290 293 304 297 292 292 290 289 292 291 284 287 305 298 288 276 267 264 263 239 249 262 273 287 305 296 326 3 315 250 267 284
325 328 333 336 338 339 342 345 349 347 346 3 334 342 314 292 309 294 291 299 293 285 281 289 293 290 305 302 289 297 300 238 253 242 219 237 282 284 286 301 291 292 22 315 283 288 286
320 326 329 332 333 334 336 338 342 344 336 345 325 287 281 301 286 301 300 300 292 301 296 289 295 309 299 270 294 301 303 319 301 308 193 256 260 270 296 288 300 327 321 322 323 291 88
317 321 325 328 329 330 332 333 335 338 337 330 321 271 271 275 281 282 269 312 301 294 298 309 329 316 291 277 281 287 291 322 281 311 301 300 302 292 291 285 289 321 344 334 308 320 310
310 315 319 321 323 324 326 328 328 330 335 333 314 292 261 269 284 275 272 274 279 269 269 296 318 194 279 270 308 309 292 292 300 281 292 290 293 301 301 303 289 337 343 335 305 304 303
304 309 314 318 319 322 323 323 324 324 338 327 319 306 279 261 267 285 280 270 259 260 273 270 259 306 305 290 310 330 273 286 285 290 317 285 257 286 287 282 300 315 325 320 320 304 308
Wind_Speed_850mb
53 53 54 54 56 60 62 64 63 58 54 52 50 37 21 18 19 19 21 23 23 12 14 17 21 23 24 22 23 11 10 10 10 12 14 16 19 13 12 16 11 13 13 22 32 39 39
54 55 54 54 57 60 64 67 66 61 55 50 49 37 19 13 14 17 22 24 18 10 12 18 23 25 15 28 9 7 6 6 7 10 12 14 15 17 10 21 15 20 32 39 37 31 18
55 56 56 56 57 59 63 68 70 65 56 53 50 36 18 13 13 18 23 22 11 13 19 25 28 29 24 16 8 12 12 11 13 14 16 14 14 16 25 24 11 33 35 34 33 17 29
55 57 58 57 58 59 63 67 69 67 58 54 50 35 19 14 15 21 25 14 13 15 20 20 21 22 18 15 11 14 14 16 14 16 19 20 18 24 23 30 35 36 29 23 24 27 29
56 60 61 60 60 61 63 66 68 66 56 54 45 32 22 16 17 24 24 12 15 15 18 14 10 3 13 16 9 10 17 13 13 13 13 15 16 27 30 26 28 30 32 44 52 43 37
57 61 63 63 62 62 63 64 65 61 53 51 37 29 21 19 22 26 20 12 15 13 13 9 7 7 10 16 4 11 17 17 13 22 17 11 19 20 25 24 30 42 45 44 48 48 48
61 65 66 65 63 62 63 65 63 57 48 46 30 29 19 20 24 29 22 14 1 4 7 4 5 6 4 15 3 8 14 22 17 15 13 17 19 20 29 25 26 33 44 52 52 45 45
66 70 71 68 66 65 65 63 60 54 44 39 23 26 18 21 23 24 26 10 8 2 4 2 7 3 7 14 12 9 17 16 16 22 18 23 19 12 21 25 35 43 46 50 48 41 36
67 71 73 72 70 67 65 61 58 53 41 34 16 21 17 7 21 18 18 14 8 2 11 7 8 6 7 15 20 11 14 24 18 23 23 21 25 20 24 34 40 37 38 40 44 46 45
67 70 72 72 72 70 67 62 58 53 41 31 7 13 18 14 9 20 9 25 2 4 9 12 9 5 7 25 8 17 12 23 23 22 23 18 12 26 34 36 31 34 33 43 46 43 39
68 70 72 73 72 71 68 65 59 53 41 28 7 4 14 20 10 11 20 15 4 3 9 7 6 3 18 14 26 7 12 20 30 31 16 16 28 36 33 22 26 37 35 38 49 47 48
67 71 73 73 73 71 70 65 61 54 43 26 8 1 9 18 17 17 20 6 2 11 3 3 2 10 23 29 10 20 26 27 34 20 20 31 35 30 20 27 25 38 33 38 50 27 18
67 71 74 74 73 73 71 67 61 56 46 29 9 1 6 13 10 21 21 2 9 9 4 5 12 23 34 21 20 18 33 25 15 14 22 39 13 10 18 28 37 31 26 16 9 9 21
66 70 72 73 72 72 72 69 64 59 52 37 14 13 4 11 15 21 13 10 8 11 11 17 21 37 24 17 18 26 27 27 9 15 24 20 34 9 18 45 45 36 19 11 16 24 39
64 67 69 70 70 70 70 69 65 59 57 47 11 8 5 13 17 19 14 6 9 7 8 19 33 18 9 10 19 23 27 23 7 8 14 26 22 47 36 17 22 18 20 20 14 37 27
62 65 67 69 69 68 67 67 66 61 57 50 9 7 11 11 16 4 8 3 4 4 13 16 15 7 23 33 21 28 22 10 16 3 19 24 30 27 15 43 13 21 15 12 7 11 26
58 61 64 67 67 66 64 63 64 62 58 44 12 4 13 18 7 3 5 7 10 6 11 9 17 28 29 31 19 33 13 26 15 24 37 30 9 25 45 34 39 21 9 13 9 12 19
56 60 62 64 64 62 61 59 59 60 57 48 11 4 20 9 2 5 7 8 11 7 8 16 14 15 15 21 29 16 21 19 32 45 36 19 10 32 46 44 29 23 31 27 11 25 27
54 57 60 63 62 61 59 57 56 54 53 47 19 8 15 11 6 7 5 7 9 13 7 10 10 8 17 23 13 14 22 12 53 20 11 5 7 18 27 13 12 22 35 35 35 29 41
53 56 59 59 58 58 58 55 53 51 44 33 14 7 8 17 10 9 11 5 10 7 18 9 19 25 14 23 24 23 40 13 30 47 55 47 18 29 30 45 48 53 53 45 36 15 39
50 53 55 55 54 55 55 55 51 46 38 23 16 7 6 9 3 15 8 6 14 10 7 20 8 12 20 15 34 42 26 43 50 50 25 10 25 38 45 48 51 57 59 52 41 40 19
48 51 52 52 51 49 48 50 52 49 38 18 13 13 13 20 13 15 0 5 13 9 13 9 17 15 25 35 40 53 47 42 31 26 18 8 19 32 48 47 49 53 52 35 26 29 38
45 48 49 48 47 47 45 44 47 47 41 15 15 12 12 9 9 10 9 11 15 27 16 23 21 35 34 35 39 53 67 73 54 46 40 18 13 19 39 39 49 31 6 18 29 31 23
44 45 44 44 43 43 43 40 39 39 35 21 14 12 8 9 10 14 18 31 31 31 28 46 35 31 26 46 56 60 60 48 36 28 25 18 24 20 29 42 31 30 24 6 21 33 51
40 40 40 41 41 41 40 38 34 33 30 16 12 10 9 13 20 31 19 25 30 37 38 39 33 25 41 41 23 17 15 11 11 18 15 21 21 13 11 24 45 27 9 7 19 52 40
39 38 38 39 39 39 38 36 35 32 33 23 11 8 8 19 2 17 29 31 22 24 23 19 15 29 29 13 11 15 8 23 9 12 12 14 20 20 24 27 23 20 25 46 40 39 8
36 38 37 37 37 37 37 36 34 31 31 32 16 12 11 21 24 10 20 23 24 21 17 31 18 21 8 11 12 11 13 12 9 18 12 21 23 21 23 23 29 22 42 48 14 32 70
34 35 35 35 34 33 32 32 34 33 31 34 24 17 20 21 48 47 40 39 30 31 14 25 21 7 9 7 7 7 8 9 16 23 25 14 12 15 15 30 19 54 33 14 26 60 77
34 34 35 36 36 34 34 33 32 31 24 27 25 15 17 33 44 52 65 63 62 55 47 21 18 16 8 7 4 7 9 8 12 12 22 9 9 15 14 20 57 63 39 34 64 67 82
Wind_Direction_850mb
38 37 36 33 29 25 21 18 14 12 10 10 13 12 13 23 32 34 27 18 7 30 58 88 108 108 96 93 89 115 95 76 56 24 25 18 23 355 1 340 306 266 323 294 291 285 279
35 32 30 27 23 22 20 17 14 11 10 7 6 7 10 17 30 24 11 5 8 51 83 104 118 114 93 86 103 82 28 353 322 346 351 356 355 345 288 309 288 324 300 295 287 286 255
34 30 25 22 20 18 16 15 13 10 11 7 5 6 10 17 30 22 10 8 49 89 112 108 111 103 75 76 56 16 354 303 291 294 307 312 318 310 319 303 325 295 291 285 267 258 276
30 26 22 19 15 13 11 11 11 10 8 7 7 13 27 36 35 22 7 26 82 108 131 127 118 92 80 47 32 354 319 312 289 281 278 279 287 287 278 300 279 274 291 275 300 296 300
25 21 17 14 10 7 7 7 7 8 7 6 13 26 36 51 35 14 10 61 91 116 133 129 103 81 79 20 20 0 13 354 315 292 274 263 274 280 286 271 294 275 284 299 300 300 291
19 16 12 9 6 4 4 3 5 6 7 7 17 26 38 49 31 21 25 88 88 102 123 98 85 191 67 1 295 1 339 344 314 305 261 249 283 269 267 275 301 313 301 297 293 301 298
12 9 7 7 4 1 2 2 4 7 8 9 21 25 51 55 37 37 43 77 284 119 44 41 65 74 27 346 308 332 348 336 320 274 291 318 294 296 325 311 300 295 290 291 291 297 295
8 6 5 4 4 1 1 3 5 8 9 12 30 34 65 56 46 40 44 70 42 318 219 104 145 142 351 351 307 311 348 345 317 318 306 288 283 346 300 292 293 295 292 289 298 307 306
6 5 5 5 5 4 4 6 8 9 10 14 41 42 45 51 39 28 45 24 3 6 257 182 208 268 341 335 312 302 327 329 313 312 335 301 301 313 292 303 300 294 290 300 305 304 289
6 6 6 6 5 4 5 6 7 8 10 9 61 44 34 29 24 8 3 350 324 165 253 141 200 194 301 328 257 299 305 328 304 316 324 290 311 299 307 302 309 302 315 305 295 300 296
8 7 6 5 5 5 5 5 7 7 9 4 9 10 22 20 7 359 341 -0 109 161 269 85 151 255 320 323 313 104 309 309 304 318 277 270 313 315 305 310 318 299 306 302 289 286 287
7 6 5 5 4 3 4 4 6 5 7 1 360 289 356 15 20 1 356 11 127 234 218 141 281 296 313 333 301 301 308 305 292 293 277 272 278 276 294 309 290 302 291 296 280 276 276
5 5 5 4 4 2 2 3 5 2 5 358 315 220 14 25 9 357 350 304 256 270 131 37 328 323 319 309 296 320 321 314 309 309 312 315 264 247 286 302 304 304 310 296 274 223 274
2 3 4 4 3 2 0 1 3 2 359 359 331 221 314 360 357 352 339 257 267 45 348 344 318 310 297 358 322 323 307 309 310 281 311 313 314 354 317 304 296 297 298 271 296 308 305
359 0 2 3 2 1 359 359 360 4 358 1 1 214 3 325 321 335 289 277 2 359 353 321 310 284 284 255 332 316 310 310 313 313 317 317 288 317 303 322 307 308 269 293 283 268 265
356 357 359 1 2 1 360 358 356 1 1 358 25 143 350 333 336 326 264 306 279 290 319 301 297 298 316 324 316 332 312 347 318 274 334 298 301 304 287 311 279 238 275 277 222 281 298
353 355 357 358 359 360 359 358 356 357 1 360 45 183 338 339 45 281 341 345 302 316 322 294 289 294 301 313 298 313 275 310 14 326 327 312 248 274 301 291 300 279 249 236 274 273 287
351 353 355 356 357 358 360 359 357 357 359 7 15 245 346 43 204 7 346 344 330 289 292 287 284 283 301 319 298 288 270 291 329 320 299 322 276 281 298 289 268 285 287 286 262 278 289
350 350 353 354 355 356 357 0 359 0 1 359 342 315 349 31 -0 357 340 286 275 299 309 295 285 283 312 294 303 267 274 294 312 320 336 301 265 298 299 293 183 285 302 290 282 280 272
346 349 352 354 355 355 355 360 3 2 3 1 347 315 18 49 54 339 337 294 296 279 283 256 281 293 303 293 281 278 291 302 295 303 293 289 260 263 276 289 304 297 293 282 271 265 286
343 347 349 351 353 354 353 354 1 6 11 24 7 34 351 323 32 326 286 286 302 313 269 292 268 247 324 287 296 283 290 304 302 298 276 266 275 293 288 288 288 285 287 295 289 276 273
341 344 345 347 350 352 353 353 353 7 18 28 2 349 322 293 292 293 166 271 294 295 305 283 276 310 297 286 285 292 296 292 299 293 285 251 285 296 287 286 290 304 303 294 291 286 284
338 339 341 343 346 348 351 354 353 358 18 40 11 339 314 294 303 294 339 314 305 313 277 252 301 305 294 289 291 285 285 284 276 278 284 267 261 288 289 302 308 291 356 300 285 290 279
332 336 338 340 343 345 346 352 353 353 7 22 354 342 310 290 293 304 297 292 292 290 289 292 291 284 287 305 298 288 276 267 264 263 239 249 262 273 287 305 296 326 3 315 250 267 284
325 328 333 336 338 339 342 345 349 347 346 3 334 342 314 292 309 294 291 299 293 285 281 289 293 290 305 302 289 297 300 238 253 242 219 237 282 284 286 301 291 292 22 315 283 288 286
320 326 329 332 333 334 336 338 342 344 336 345 325 287 281 301 286 301 300 300 292 301 296 289 295 309 299 270 294 301 303 319 301 308 193 256 260 270 296 288 300 327 321 322 323 291 88
317 321 325 328 329 330 332 333 335 338 337 330 321 271 271 275 281 282 269 312 301 294 298 309 329 316 291 277 281 287 291 322 281 311 301 300 302 292 291 285 289 321 344 334 308 320 310
310 315 319 321 323 324 326 328 328 330 335 333 314 292 261 269 284 275 272 274 279 269 269 296 318 194 279 270 308 309 292 292 300 281 292 290 293 301 301 303 289 337 343 335 305 304 303
304 309 314 318 319 322 323 323 324 324 338 327 319 306 279 261 267 285 280 270 259 260 273 270 259 306 305 290 310 330 273 286 285 290 317 285 257 286 287 282 300 315 325 320 320 304 308